Wind_Speed
39 39 41 45 45 43 41 41 41 39 39 40 41 41 41 41 43 46 42 38 38 35 34 36 33 32 35 39 44 48 49 49 50 49 48 47 47 46 45 44 42 41 41 41 40 40 40 41 44 47 49 50 51 51 51 52 52 52 52 51 51 52 53 53 53 54 55 55 56 57 59 61 63 65 66 68 70 71 72 73 74 75 75 77 78 80
38 37 40 44 43 43 42 42 40 39 39 39 40 40 41 41 42 44 43 40 39 35 33 37 34 32 36 39 42 45 47 50 51 50 50 51 51 50 48 46 45 45 44 43 41 40 40 42 45 48 51 52 52 52 52 52 53 52 52 52 52 54 55 54 55 56 56 56 58 60 62 64 65 67 69 70 72 74 74 75 76 78 79 81 83 85
38 38 41 43 42 42 42 41 40 39 38 39 39 39 40 42 41 40 42 41 39 35 34 36 34 32 36 38 41 46 46 48 51 52 53 53 54 52 50 50 49 48 47 46 44 42 42 44 47 51 53 54 53 53 53 53 53 53 53 54 55 56 56 56 57 58 58 59 61 63 65 67 68 70 71 73 74 76 77 78 79 81 82 84 86 89
39 40 43 43 43 43 42 41 41 39 38 38 39 39 38 42 41 38 40 41 38 36 34 36 34 31 35 37 41 47 47 46 46 51 57 57 56 55 54 54 52 52 51 49 47 45 45 47 50 53 54 55 54 54 54 53 53 54 54 56 56 57 57 58 60 61 61 63 64 66 67 69 70 71 73 75 76 78 79 81 82 84 85 87 89 91
42 44 45 45 46 45 44 43 43 42 39 38 39 40 39 40 40 37 38 39 37 36 36 37 34 30 32 35 38 45 47 47 44 48 57 60 57 56 57 58 57 56 55 52 50 48 47 49 52 54 56 56 55 55 54 54 54 55 56 57 57 58 59 61 63 63 64 65 66 67 69 71 72 73 75 77 79 81 82 84 85 86 87 89 90 92
46 48 48 48 49 47 46 46 47 45 40 38 40 43 41 40 40 39 38 37 36 36 36 39 37 30 29 32 36 41 44 45 46 49 54 57 57 58 59 62 62 60 58 55 53 51 50 52 54 56 57 56 56 55 55 54 55 56 57 58 59 60 62 63 64 65 65 67 68 70 71 73 74 76 77 79 81 83 84 85 86 87 88 89 91 94
49 52 50 50 50 49 48 48 50 49 41 39 42 46 44 41 41 40 39 38 36 36 34 38 42 33 24 28 33 38 40 42 49 54 53 53 56 60 63 65 65 62 61 59 57 55 54 54 55 56 56 55 55 56 55 55 57 58 59 60 61 62 63 64 65 66 67 69 70 72 73 75 76 77 79 80 82 83 84 85 86 87 89 91 94 97
51 53 52 52 52 51 51 51 52 51 44 41 44 47 46 44 43 41 41 40 38 37 32 37 48 37 21 24 30 34 38 43 51 57 56 52 53 61 65 66 67 66 64 63 61 58 57 56 56 55 55 55 56 56 56 57 59 60 61 62 63 64 64 66 67 68 70 71 73 74 75 76 78 79 80 81 82 83 83 85 87 89 92 95 99 102
53 54 55 54 53 53 53 54 54 53 49 44 45 47 48 47 46 43 43 43 42 40 33 37 51 41 22 21 28 31 38 45 51 55 58 54 51 58 65 67 69 69 68 66 63 61 59 57 55 54 54 56 58 58 59 60 61 62 63 64 64 65 67 68 70 71 72 74 75 76 77 78 79 80 80 81 81 83 85 87 90 93 97 100 104 107
55 56 56 56 56 56 56 56 55 55 53 49 48 49 50 50 48 47 46 46 46 41 35 40 50 43 27 20 27 35 41 47 52 54 57 57 53 57 65 69 72 72 70 68 65 62 60 58 55 53 55 58 59 60 61 62 64 65 65 66 67 68 69 70 72 73 74 75 76 77 77 78 78 78 79 81 83 85 89 92 95 98 101 105 108 110
56 55 56 57 59 59 59 59 58 56 54 52 51 51 53 52 51 51 49 51 50 42 39 44 47 45 35 26 32 42 45 49 54 54 56 59 57 59 66 71 74 74 71 68 65 63 61 59 56 54 56 59 60 61 63 65 66 67 67 68 69 70 71 73 74 75 76 76 77 77 77 77 78 79 81 84 87 91 94 97 99 102 105 107 110 111
57 55 56 58 59 59 60 59 57 55 53 53 52 52 54 53 52 53 51 54 53 45 43 47 47 47 41 36 41 46 47 52 55 54 56 60 59 60 66 72 74 73 70 67 65 63 62 60 57 56 58 60 61 63 65 66 68 69 70 71 71 72 73 74 76 76 77 77 77 77 77 78 80 82 85 89 92 95 98 100 102 105 107 109 110 111
58 57 58 59 60 61 61 58 56 54 53 52 52 54 55 53 53 53 51 53 51 44 44 46 46 44 39 39 45 45 46 50 52 51 55 58 59 61 66 71 73 72 68 66 65 64 63 60 58 59 61 62 64 66 67 68 70 71 72 72 73 73 75 76 76 77 77 77 77 78 78 80 83 87 90 93 96 99 101 103 105 107 109 110 110 110
61 60 60 63 63 62 61 59 57 55 54 54 54 57 56 54 57 56 52 51 47 43 44 45 43 39 36 38 42 42 43 48 51 51 54 57 61 65 66 69 73 71 68 66 66 65 63 61 62 63 64 65 67 68 69 70 71 72 73 74 74 75 76 76 77 77 77 77 78 79 81 84 87 91 94 97 100 102 104 106 108 109 109 109 109 108
67 62 60 65 66 63 63 63 62 60 58 57 58 61 59 59 65 64 55 50 48 44 43 44 41 34 33 35 37 37 39 47 53 53 55 59 64 68 67 70 74 72 69 68 67 66 65 64 65 66 66 68 69 70 70 71 71 73 74 75 75 76 76 77 77 77 77 78 80 82 85 88 91 95 97 100 103 105 107 108 109 109 109 108 107 107
72 65 60 66 68 66 66 66 66 65 63 61 63 64 62 65 71 70 61 55 55 51 42 41 38 30 31 32 31 36 40 47 55 54 56 62 67 69 68 70 75 74 72 72 70 69 68 67 68 68 69 70 71 71 71 72 72 74 75 76 76 77 77 78 78 78 79 80 82 85 88 91 94 97 100 103 106 108 109 109 109 109 108 107 105 104
76 70 64 67 69 68 69 69 69 69 67 66 67 66 67 70 73 73 69 62 63 60 46 42 40 32 32 32 31 38 44 49 56 56 58 64 67 67 66 69 74 76 74 73 72 71 70 70 70 70 72 73 74 73 73 73 75 75 76 77 78 78 78 79 80 80 82 83 85 88 91 94 96 100 103 106 108 109 109 109 108 108 106 105 104 102
80 77 71 70 71 71 73 74 72 70 70 71 70 69 71 73 73 74 74 69 68 67 54 45 44 39 34 34 34 41 47 52 59 60 62 66 66 66 66 69 75 76 75 73 73 72 72 71 71 72 74 75 76 75 74 76 77 77 78 80 80 80 80 81 82 82 84 86 88 91 94 97 100 103 107 109 110 110 109 108 108 106 105 103 102 100
83 83 77 74 74 75 76 75 73 71 72 74 73 72 73 74 75 74 76 74 71 72 63 49 46 41 34 33 38 44 49 55 60 63 64 64 64 64 65 69 75 76 74 73 73 73 72 72 73 73 74 76 76 75 76 78 79 79 81 83 83 82 82 83 84 85 88 90 93 95 98 100 103 106 110 111 110 109 108 108 106 105 102 101 99 98
85 87 82 77 77 79 78 74 73 73 75 76 75 74 73 74 77 76 78 77 75 76 71 55 42 31 27 32 40 47 52 56 62 65 65 64 64 65 66 72 78 78 74 74 74 74 74 74 75 75 75 76 76 76 78 80 81 83 85 86 85 85 85 86 88 91 93 96 98 99 101 103 106 110 112 111 109 108 107 106 104 102 100 98 97 96
86 89 86 82 80 80 76 74 76 77 77 77 76 76 74 74 78 80 80 78 77 78 74 62 41 20 21 36 43 49 56 60 64 68 69 68 66 66 70 76 81 80 77 78 78 78 78 78 77 77 77 79 79 79 81 83 85 87 88 88 88 88 89 91 94 96 98 100 101 102 104 107 110 112 111 109 108 107 105 103 101 99 96 95 94 93
89 91 91 88 84 81 77 76 77 77 77 77 77 75 74 77 81 83 81 76 77 78 73 69 53 25 23 41 48 55 63 65 68 72 74 73 70 69 73 79 83 83 82 82 82 82 82 81 81 80 81 82 81 82 85 87 89 90 91 91 91 91 93 96 98 100 101 102 104 106 109 111 112 111 109 108 106 105 103 101 98 96 94 92 91 90
90 94 94 93 89 85 80 77 76 76 75 75 75 75 77 81 82 84 84 79 79 79 72 74 66 36 29 47 56 62 69 69 72 77 77 75 73 73 77 80 82 84 84 85 86 86 86 86 86 85 85 86 86 87 90 91 92 93 94 94 95 96 97 99 101 103 104 106 108 110 112 111 110 108 107 106 105 103 101 98 96 94 92 90 90 89
92 95 95 94 93 89 84 80 76 75 76 77 79 79 80 81 81 84 87 83 83 80 72 77 75 49 39 55 63 66 70 71 76 80 78 77 79 82 82 82 84 86 87 90 91 92 92 91 90 90 91 91 91 92 93 94 94 95 97 98 99 100 101 102 104 106 107 109 111 111 111 109 107 106 106 104 103 101 99 97 95 93 91 90 89 88
95 98 98 98 97 92 87 83 79 79 82 83 83 83 82 83 85 87 87 88 87 79 73 82 82 62 55 67 72 73 74 75 81 84 83 83 87 90 90 89 90 90 91 93 95 96 96 95 95 95 96 96 95 95 96 96 97 99 101 102 102 103 104 106 108 109 110 111 111 110 108 107 106 105 103 102 101 100 98 96 94 92 91 90 89 87
100 101 102 102 100 95 88 83 82 84 87 86 83 83 83 84 86 87 87 88 85 77 76 84 83 73 72 78 80 79 79 82 88 91 89 89 92 94 94 95 98 97 95 94 96 98 99 98 99 101 101 99 98 98 99 100 101 103 105 105 106 106 108 109 109 109 110 110 109 108 107 105 104 102 101 100 99 98 97 94 92 91 90 89 87 86
104 104 104 103 101 97 90 86 86 89 91 89 86 84 84 83 84 86 86 84 81 82 84 84 83 86 88 85 83 81 84 92 98 98 96 96 98 98 99 101 103 103 100 97 97 98 99 100 102 104 104 103 102 103 104 105 105 107 108 109 109 109 109 109 109 108 108 108 108 108 106 104 101 99 98 97 97 96 95 92 91 90 89 87 86 86
107 107 105 103 101 99 96 91 90 93 95 94 90 88 86 86 87 87 85 82 84 92 94 87 89 98 98 89 85 85 91 100 104 103 102 102 103 104 106 107 107 106 104 101 99 99 100 101 103 104 105 104 105 106 107 107 108 109 110 110 110 109 109 108 108 107 107 107 107 106 104 102 99 97 96 95 95 94 92 91 90 89 87 86 86 86
110 111 107 106 106 105 103 98 95 96 99 98 97 94 91 89 88 86 85 87 93 101 101 96 97 103 99 92 90 93 100 104 106 106 107 108 109 110 112 112 110 108 106 102 101 101 102 102 102 103 104 105 106 108 108 109 109 110 110 109 109 108 108 107 107 106 106 106 105 104 102 99 97 95 94 93 92 91 90 90 89 88 87 86 86 87
113 113 111 111 112 112 110 105 102 103 106 104 102 101 97 92 89 89 91 94 99 104 104 102 103 102 98 95 98 102 106 108 109 111 111 110 111 114 116 114 111 109 107 104 103 103 103 102 102 102 103 105 106 107 108 108 108 108 108 107 107 106 106 106 106 105 105 104 104 103 100 97 96 94 93 91 90 89 89 89 88 87 87 86 86 87
118 117 115 116 118 118 114 109 108 111 112 110 107 104 98 93 93 98 100 100 101 103 103 105 106 103 98 99 105 109 110 112 114 114 113 113 115 117 119 116 113 111 109 106 105 104 103 102 102 102 102 103 105 105 106 106 106 106 106 106 106 105 105 105 104 103 103 102 102 101 98 96 94 93 91 90 89 88 88 88 87 87 87 87 87 88
122 121 119 121 124 123 117 113 114 116 117 117 112 103 97 97 103 106 105 105 106 106 108 109 108 104 103 106 111 114 116 118 118 117 117 117 117 120 120 117 115 113 111 109 106 104 103 102 101 102 102 103 104 104 104 104 105 106 106 106 105 104 103 103 102 102 101 101 100 99 97 95 93 91 90 89 87 87 87 88 87 87 87 88 89 90
126 125 123 125 128 127 122 119 120 124 127 124 114 104 102 107 112 111 109 111 113 114 115 114 111 109 111 114 117 119 122 122 121 120 119 118 119 121 121 118 115 114 112 110 107 105 104 103 102 102 103 103 103 103 103 103 104 104 104 104 104 103 102 102 101 100 99 99 98 97 95 93 91 90 89 88 87 88 88 88 88 88 88 89 90 89
130 130 129 130 132 131 128 126 128 133 134 125 116 111 113 116 116 114 114 116 119 122 122 119 116 116 119 121 123 125 126 126 124 122 119 119 122 123 120 117 116 115 113 110 108 107 105 104 104 103 103 103 103 102 102 102 102 102 102 101 101 101 101 100 100 99 98 97 96 95 93 91 90 89 88 88 88 89 89 89 89 89 90 90 89 88
133 133 134 135 136 136 134 135 138 138 134 127 123 122 120 119 119 119 121 122 124 126 126 124 122 123 125 126 126 127 129 128 125 121 118 121 124 123 119 117 117 116 114 111 109 107 105 104 103 103 103 103 102 101 100 99 99 99 99 99 99 99 99 99 99 98 97 96 95 93 92 90 89 89 89 89 90 90 90 90 90 90 90 89 88 88
136 136 137 138 140 141 141 143 144 142 138 135 131 126 123 122 123 126 127 128 127 128 127 126 126 129 129 126 125 126 129 129 125 119 118 122 125 123 121 119 118 116 114 111 108 105 104 103 102 102 103 102 101 99 97 96 96 96 97 97 97 97 97 97 98 98 97 96 95 93 91 91 90 90 90 91 92 92 91 91 91 91 90 89 89 90
139 140 142 143 144 144 145 147 147 146 144 139 132 127 125 125 127 130 131 130 129 127 126 126 128 131 129 124 122 126 130 130 125 119 119 122 125 123 121 120 118 116 113 110 107 105 103 102 101 102 103 103 102 99 97 96 96 96 97 97 97 97 97 97 97 97 97 96 95 94 93 93 93 92 92 93 93 93 93 92 92 91 90 90 91 92
142 143 144 146 147 148 149 150 151 150 145 138 132 127 126 128 129 130 131 130 126 123 123 125 127 129 127 123 123 128 132 132 127 122 121 123 124 122 121 119 118 115 112 109 107 105 103 102 102 103 103 103 103 101 99 97 96 96 97 97 97 98 98 98 98 98 97 97 96 95 95 95 95 94 94 94 94 94 93 93 92 92 91 92 93 93
144 145 146 147 148 150 150 151 152 151 145 139 133 129 129 129 128 128 130 127 120 118 121 124 126 127 127 125 125 128 130 130 127 124 123 123 122 120 118 117 116 114 112 110 109 108 107 106 105 104 103 103 103 102 100 99 97 97 98 98 99 99 99 99 99 99 98 97 96 96 97 96 96 95 95 96 95 94 94 94 94 94 94 94 94 93
143 144 146 148 149 150 151 152 152 150 145 139 135 132 129 126 126 129 127 117 113 118 124 125 127 127 127 126 126 127 128 129 128 127 123 119 117 115 113 112 112 111 109 109 109 108 108 109 108 106 104 103 104 103 103 102 100 100 100 101 101 101 101 101 100 99 98 98 98 98 98 97 97 97 97 97 97 98 98 98 98 98 96 95 93 92
143 144 145 147 148 149 152 153 153 151 145 138 134 132 130 130 129 124 115 110 116 125 128 128 130 130 128 128 129 129 129 129 131 130 124 118 114 111 109 109 109 109 109 109 108 107 107 107 106 105 104 104 105 105 105 105 104 103 102 102 102 102 102 102 101 100 100 100 100 100 100 100 99 99 100 101 102 103 103 102 100 99 97 95 93 92
143 144 145 147 148 149 150 152 154 152 143 136 135 136 136 133 122 110 110 118 126 130 131 132 133 131 130 131 131 130 130 130 130 129 125 118 113 109 108 108 109 110 110 110 110 109 107 106 105 104 104 104 105 106 106 106 105 104 104 103 103 103 104 103 102 102 102 102 103 103 103 103 102 103 104 105 105 105 104 102 101 99 97 94 93 92
144 145 146 147 147 149 151 153 153 149 141 136 139 140 135 127 118 116 123 129 128 127 130 131 130 130 131 131 130 129 128 126 126 125 122 118 113 108 106 106 107 108 109 109 110 110 109 107 107 107 106 106 106 108 108 108 108 107 106 105 105 106 105 105 105 105 105 106 106 106 107 106 106 107 107 106 106 105 105 104 102 99 96 93 92 92
144 144 145 146 146 148 151 152 149 145 141 140 139 136 130 126 125 126 127 123 120 121 123 123 124 125 125 126 126 125 123 121 120 120 119 118 114 108 104 103 103 105 106 107 108 108 107 107 107 107 107 108 109 110 110 111 111 111 110 109 108 108 107 107 108 108 109 109 109 110 111 110 110 109 108 108 107 107 106 105 102 99 95 92 92 92
138 137 137 140 143 145 146 145 142 140 137 135 133 129 125 123 121 119 117 114 112 111 113 116 118 117 116 117 119 119 119 118 118 118 118 117 113 109 105 103 103 105 105 105 105 104 105 104 104 105 105 106 107 108 109 110 111 112 112 111 110 109 108 109 110 110 110 110 111 112 112 111 110 109 108 108 108 107 106 104 101 98 95 93 92 92
131 130 130 131 133 135 135 133 132 129 126 125 125 121 115 113 112 111 110 109 106 105 107 109 109 109 110 112 113 114 115 116 116 116 116 114 113 111 108 106 107 109 108 105 103 102 101 101 102 104 104 105 105 106 106 107 108 109 110 110 110 109 109 109 110 111 110 110 111 112 112 110 109 108 108 108 108 107 105 103 100 97 95 93 93 92
126 125 125 125 125 126 126 124 123 120 117 117 117 113 108 107 108 108 108 108 106 104 104 104 104 106 108 109 110 111 112 113 114 114 113 113 114 113 110 109 110 112 111 108 107 105 102 100 101 102 103 103 103 104 105 104 104 105 106 107 108 108 108 108 109 110 110 111 111 111 111 109 108 107 107 107 107 106 104 102 100 97 94 94 94 94
122 121 123 123 122 122 121 120 120 118 115 111 109 108 108 108 107 107 109 109 107 105 103 102 103 105 106 107 108 109 109 110 112 112 112 112 112 112 111 111 111 111 111 111 111 109 105 102 102 101 101 101 101 103 104 103 103 103 104 104 105 106 106 107 108 108 109 110 111 111 109 108 106 106 106 106 106 105 104 102 99 96 95 95 96 95
122 121 121 121 121 120 119 119 119 118 115 110 107 107 110 111 110 110 110 109 108 106 104 102 102 103 105 107 107 107 108 109 109 111 112 112 111 111 112 111 111 110 111 112 112 110 107 105 103 102 101 101 101 103 103 103 103 103 103 103 104 104 105 106 107 108 109 110 110 110 108 106 105 105 105 105 104 103 103 101 99 96 96 96 95 95
122 120 120 121 120 117 116 117 118 119 115 108 104 107 112 113 113 112 110 109 109 107 104 103 102 103 105 106 106 107 107 107 107 109 111 111 110 110 111 111 111 111 111 111 111 110 108 106 104 102 102 102 103 103 103 103 103 102 102 102 103 103 105 106 107 108 108 109 109 109 107 105 104 105 104 103 103 103 102 101 99 99 99 98 96 94
118 118 118 119 117 113 113 116 119 120 115 107 103 106 110 111 111 111 109 108 108 107 106 105 105 103 103 103 103 105 106 106 106 106 108 110 109 109 110 111 111 111 111 111 111 110 109 108 105 104 103 103 103 102 102 101 102 102 102 102 102 103 104 104 105 107 108 108 109 108 106 104 104 104 103 102 102 102 102 101 100 101 102 102 100 97
Wind_Direction
291 290 287 283 282 283 283 281 279 278 277 276 275 274 273 272 272 273 274 274 273 275 277 278 282 282 279 282 284 288 293 293 291 293 294 293 292 291 293 294 294 294 295 296 298 299 299 298 297 296 295 294 294 294 294 294 295 296 297 297 297 298 298 298 298 298 298 297 296 295 296 296 297 298 298 299 299 299 299 298 296 295 293 293 293 294
293 293 287 283 284 284 283 281 280 280 278 277 277 276 275 273 271 273 275 275 275 276 276 278 282 281 281 284 282 283 290 292 291 292 291 290 290 291 293 293 293 293 293 295 296 298 298 298 298 296 295 294 294 294 294 294 295 295 295 295 295 296 296 297 297 297 296 295 295 295 295 296 297 298 298 299 299 299 299 297 295 294 293 292 293 293
292 292 287 285 286 284 283 283 282 281 280 279 278 277 276 275 273 274 276 276 277 278 277 278 282 283 282 286 283 280 286 291 292 291 289 288 289 292 293 291 291 291 292 293 294 295 297 298 299 297 296 295 295 295 294 294 294 294 293 293 294 295 295 295 296 296 295 294 294 295 295 296 297 298 298 298 299 299 298 297 296 294 293 293 293 294
291 288 287 287 286 285 286 286 284 282 281 281 281 279 277 275 275 276 276 277 279 279 278 278 281 283 284 288 284 279 283 287 289 289 287 288 291 292 292 290 289 290 292 293 293 295 298 299 299 298 296 295 295 294 293 293 293 292 292 293 294 294 294 294 295 295 294 294 294 295 295 296 297 297 297 298 298 298 298 298 297 296 295 294 294 295
289 286 284 284 284 286 287 287 286 284 283 284 284 282 278 277 278 277 276 279 281 282 280 278 280 281 285 290 284 280 283 285 284 284 285 288 292 292 292 291 290 292 293 293 294 296 298 299 298 296 295 295 294 293 292 292 292 291 292 293 293 293 293 294 294 294 294 295 295 296 296 296 297 297 297 298 298 298 298 298 298 297 296 295 295 295
287 284 283 284 285 286 286 287 286 284 285 287 286 283 281 280 280 279 279 279 280 282 282 282 281 278 286 292 285 282 286 287 286 284 284 288 292 293 292 291 292 293 293 293 295 297 298 298 296 295 294 294 293 292 291 291 290 290 291 292 293 293 293 293 294 294 294 295 296 296 296 297 297 297 297 298 299 299 299 299 298 297 297 296 296 296
284 282 283 284 284 285 286 285 284 284 285 286 285 284 284 283 282 283 282 280 279 280 282 286 282 279 290 293 284 282 283 284 284 284 285 289 291 292 291 290 291 292 292 293 295 297 297 297 296 295 294 293 292 291 290 290 290 290 291 292 292 293 293 293 294 294 294 295 296 296 297 297 297 298 298 299 299 299 299 299 299 298 298 297 297 297
282 283 283 283 283 284 285 283 284 285 286 284 284 285 287 286 285 285 283 282 281 279 283 287 281 280 293 292 285 285 282 279 280 282 285 287 289 289 289 289 290 290 291 292 294 296 297 296 295 295 294 292 291 290 290 290 290 291 291 292 292 292 293 293 294 294 295 295 296 296 297 297 298 299 299 300 299 300 299 299 299 299 298 298 298 299
282 283 283 283 284 283 282 283 284 285 285 284 284 284 286 286 286 285 283 283 281 280 285 284 281 283 290 289 287 285 281 280 281 284 288 289 288 287 287 288 288 289 290 291 293 295 295 295 295 294 293 291 290 290 290 290 291 291 291 291 292 293 293 294 294 294 295 295 296 296 297 298 298 299 300 300 300 300 300 299 299 299 299 299 300 300
281 282 283 284 284 283 282 283 283 284 285 285 284 283 284 284 284 284 283 282 280 281 285 282 282 286 286 284 285 280 278 280 282 285 289 291 289 287 286 287 286 286 288 290 292 293 294 294 294 293 291 289 289 289 290 290 291 291 291 292 292 293 294 294 294 294 295 295 296 296 297 298 299 300 300 300 300 300 300 300 300 300 300 300 300 300
280 280 282 282 281 282 283 282 282 284 286 285 284 283 282 282 282 282 282 281 279 281 282 280 282 286 284 280 276 275 276 279 281 284 287 287 287 286 284 284 284 285 287 289 291 292 292 292 293 292 290 288 289 289 290 290 290 291 292 292 293 293 294 294 294 294 295 295 296 296 297 297 298 300 300 301 301 301 300 300 300 300 300 300 301 302
279 280 280 279 280 281 280 281 283 284 285 285 285 284 282 282 281 280 280 280 280 282 281 280 282 284 286 283 276 276 278 278 280 283 284 284 285 284 281 281 282 284 287 290 291 291 291 291 292 291 289 289 290 290 290 290 290 291 292 293 293 293 294 294 294 294 295 295 296 296 297 298 299 299 300 300 300 301 301 301 301 301 301 302 302 303
279 280 279 279 280 279 279 281 282 283 284 284 286 285 283 283 281 280 279 279 282 284 282 280 282 285 289 287 283 285 286 284 284 284 283 284 284 281 280 281 283 285 289 290 290 289 290 291 291 289 289 290 290 290 290 290 291 292 292 292 293 293 294 294 294 295 295 296 296 296 297 298 299 299 300 300 301 301 301 301 301 302 302 303 303 303
280 279 280 281 280 280 281 281 280 282 283 284 285 284 283 284 282 280 279 280 282 283 282 282 284 288 291 288 288 294 294 290 287 284 282 283 282 281 282 283 285 288 290 290 289 289 290 291 291 290 291 291 290 290 290 290 291 292 292 292 293 294 294 294 295 295 295 296 296 297 297 298 299 300 301 301 302 302 302 302 302 302 303 303 303 303
279 278 281 281 281 281 281 280 281 281 282 284 284 283 284 284 282 281 280 281 281 279 280 283 286 292 293 290 292 294 291 288 285 283 282 282 282 283 285 287 288 289 290 289 289 290 291 292 292 292 292 291 290 290 291 291 292 292 292 294 294 294 294 294 295 295 295 295 296 297 297 298 299 300 301 302 302 302 302 302 302 302 302 302 302 302
278 278 278 278 279 280 280 280 281 282 283 283 282 283 285 283 282 283 283 283 281 278 277 281 285 293 294 293 296 291 285 283 282 283 283 281 281 283 286 288 288 289 290 290 291 292 293 293 293 293 292 291 291 291 292 292 292 292 293 294 294 294 294 294 294 294 294 295 295 296 297 298 299 300 301 302 302 302 302 302 302 302 302 302 302 302
278 278 276 275 276 278 279 280 281 282 283 283 283 284 283 282 283 285 286 285 283 280 278 278 279 282 287 292 295 288 285 284 285 287 285 282 282 285 287 288 288 288 290 291 292 293 294 293 293 293 292 291 291 291 292 291 290 292 293 294 293 292 293 293 293 293 293 294 295 295 296 297 298 299 301 302 302 302 301 301 301 302 302 302 302 301
279 278 276 274 275 276 277 278 279 281 282 282 282 282 281 282 284 285 285 284 283 281 279 277 278 279 283 287 284 281 282 285 286 287 284 284 286 288 289 289 288 289 290 292 294 294 293 294 294 293 292 291 291 291 291 290 290 292 293 293 292 292 292 293 293 293 293 294 294 294 295 296 297 299 301 302 302 301 301 301 301 302 302 302 301 299
278 277 276 275 275 275 275 276 279 280 280 279 279 280 281 283 283 284 284 284 283 282 281 278 279 282 287 288 284 283 284 283 282 282 282 284 287 290 290 289 288 289 292 294 295 294 294 294 294 293 292 292 292 291 291 290 291 292 292 292 291 291 292 293 293 293 293 294 294 294 295 296 297 299 301 301 301 301 301 301 301 302 301 300 299 297
277 278 277 276 275 274 274 277 278 277 277 277 279 280 281 282 283 283 283 284 284 284 284 283 281 285 294 295 292 291 288 283 282 284 287 289 290 291 291 288 287 289 293 295 294 293 293 292 291 292 292 291 290 290 290 290 291 292 292 291 291 291 292 293 293 294 294 294 294 294 295 296 298 299 300 301 301 301 301 301 301 301 300 298 297 296
278 279 279 277 275 275 276 276 275 275 276 278 279 280 282 282 282 281 280 282 283 284 286 287 287 289 297 295 294 291 288 286 288 292 294 294 295 294 293 290 289 291 293 294 293 292 290 289 290 291 291 289 289 289 289 290 291 291 291 290 290 291 292 293 293 294 294 294 294 295 295 297 298 299 300 300 300 300 300 301 301 300 298 297 296 296
277 278 278 277 276 276 276 275 275 276 277 279 280 281 282 280 279 279 280 281 282 283 285 288 288 290 296 296 293 289 288 289 293 295 296 296 297 296 293 292 292 293 294 293 293 291 289 288 289 291 290 288 288 288 289 290 291 290 290 290 290 291 292 293 293 293 293 294 294 295 296 297 298 299 299 300 300 300 300 300 300 298 297 296 296 297
275 275 275 276 276 276 276 275 276 277 278 279 280 280 279 278 278 280 281 281 281 282 285 287 286 286 295 297 292 287 288 291 294 293 293 294 296 295 293 292 292 292 291 292 292 290 289 288 289 290 289 288 287 288 289 289 289 289 289 289 290 291 292 292 292 293 293 294 294 295 296 297 298 299 299 299 299 299 299 299 298 297 296 296 297 298
274 274 274 275 276 276 276 277 278 279 279 279 278 277 277 277 278 279 280 280 280 281 285 284 282 280 287 291 288 286 289 292 292 291 291 293 294 294 295 295 294 292 290 290 291 290 289 289 289 289 288 287 287 288 288 288 288 288 289 289 290 291 291 291 292 293 293 294 295 296 296 297 298 298 299 299 299 299 299 298 297 297 297 297 298 299
273 273 274 275 275 276 277 279 280 279 278 277 276 277 277 277 277 277 278 278 279 282 284 280 279 280 282 283 284 287 290 291 290 290 291 292 292 294 297 297 296 295 293 291 289 289 289 289 289 288 287 287 288 288 287 287 287 288 289 290 290 291 291 291 292 293 293 294 295 296 296 297 298 298 299 299 298 298 298 298 297 297 297 298 299 300
272 273 273 274 275 277 278 280 281 279 277 277 277 278 278 277 277 277 277 278 280 283 280 277 279 281 279 279 283 288 290 289 288 289 290 292 293 295 296 296 295 296 296 293 290 289 288 288 288 287 286 286 287 286 286 286 286 287 288 289 290 290 291 291 292 293 294 295 295 296 296 297 298 298 298 298 297 297 297 297 297 297 298 299 300 302
271 271 272 274 276 278 279 279 278 278 277 278 278 278 277 278 278 278 278 280 283 282 277 277 281 280 278 279 283 288 289 287 287 290 291 293 294 295 295 294 295 296 296 294 291 289 288 286 286 285 284 285 285 285 285 286 287 287 288 289 290 291 292 292 293 294 294 295 295 296 296 297 298 298 297 297 296 296 296 297 297 299 300 301 302 304
271 271 272 275 277 278 278 278 277 277 277 278 278 277 276 276 277 278 279 281 281 278 276 278 279 278 279 282 285 287 286 285 288 291 292 293 294 294 294 294 295 297 297 295 292 289 287 286 285 284 285 285 286 286 286 287 287 288 289 290 291 292 292 293 293 294 294 295 295 296 296 297 298 297 296 295 295 295 296 297 299 301 302 304 305 306
272 273 275 277 277 277 277 276 277 277 276 276 276 276 276 275 275 277 278 278 278 277 278 279 278 278 281 285 287 286 285 286 288 290 291 291 292 293 294 294 296 297 297 295 292 290 288 286 285 285 286 286 286 286 287 288 288 289 290 291 292 292 293 293 294 294 294 295 295 296 297 297 297 297 296 295 295 296 297 299 301 303 305 306 308 309
273 274 276 277 277 277 278 279 279 278 276 276 276 276 276 277 279 280 277 276 277 278 279 280 280 280 283 287 287 286 286 287 288 288 289 290 292 293 293 294 296 297 295 294 292 290 289 288 287 287 286 286 286 287 287 288 288 289 290 291 292 292 293 293 294 295 295 295 296 296 297 297 297 296 296 296 296 297 299 302 304 306 308 309 310 311
275 275 276 277 277 278 280 281 281 279 278 277 276 276 279 282 283 280 278 279 280 280 280 281 281 282 286 288 288 287 287 287 287 288 290 292 293 293 294 295 296 295 294 293 292 291 290 289 289 288 287 287 287 287 288 289 289 290 291 291 292 292 293 294 294 295 295 296 296 296 297 297 296 296 296 296 297 299 302 305 308 309 310 311 312 313
276 276 277 278 278 280 281 281 280 279 278 278 278 281 285 285 281 280 281 284 285 284 284 283 283 286 289 290 288 288 288 287 288 290 292 293 294 294 294 295 295 294 294 294 293 292 291 290 289 288 287 287 287 288 289 289 290 291 291 292 292 293 293 294 295 295 295 296 296 296 296 296 296 296 297 297 299 302 306 308 310 310 311 313 315 315
278 278 278 278 279 280 282 281 280 279 278 279 283 286 285 281 280 283 285 286 286 286 285 285 287 289 290 290 289 288 288 288 289 291 292 294 294 293 293 293 294 294 294 294 294 293 291 290 289 288 288 288 288 289 289 290 291 291 292 293 293 294 294 294 295 295 295 296 296 296 296 296 296 296 297 299 302 306 309 310 311 312 313 314 315 315
278 278 278 278 279 279 280 279 278 278 279 283 286 284 280 280 283 285 286 285 284 284 285 287 289 290 289 289 288 288 288 289 290 291 293 293 291 291 292 293 293 294 294 293 293 292 291 290 289 289 289 288 288 289 289 290 290 291 292 293 294 294 294 295 295 295 295 295 295 295 295 296 296 297 299 302 306 309 311 311 312 312 313 314 315 315
276 277 277 277 278 278 278 278 277 279 282 284 282 280 280 283 285 285 284 283 282 283 285 287 288 288 287 287 287 288 288 289 289 290 291 291 290 290 292 293 293 293 293 292 291 291 290 290 289 289 289 288 288 288 289 290 290 291 292 293 293 294 295 295 295 295 294 294 294 294 295 296 298 299 302 306 309 311 311 312 312 313 314 315 316 318
275 275 275 275 276 276 277 278 279 280 281 280 279 280 282 284 284 283 282 281 282 282 284 285 286 285 285 286 287 288 288 288 288 289 290 290 290 291 292 293 293 292 292 291 291 291 291 290 290 289 289 289 289 289 289 290 291 292 293 293 294 294 294 294 294 293 294 294 295 297 298 300 301 303 306 308 310 311 311 312 312 313 314 316 318 320
273 274 274 274 275 275 276 277 278 278 279 279 281 282 282 282 281 281 281 281 281 282 283 284 284 283 284 287 288 288 287 286 287 289 290 290 290 291 292 292 292 292 291 291 291 291 290 290 290 290 291 291 291 291 291 292 293 293 293 293 294 294 294 294 295 296 298 299 300 301 302 302 303 305 307 309 309 310 311 311 312 313 315 317 319 320
273 273 273 274 274 275 275 276 277 278 279 281 281 281 280 280 280 280 280 280 281 282 283 283 283 284 286 287 287 286 286 287 288 290 290 290 290 291 292 291 292 291 291 291 291 291 291 291 291 291 292 293 293 293 293 293 293 294 294 294 295 296 297 298 299 300 301 301 301 302 302 303 304 306 308 309 309 310 310 311 313 315 317 318 319 319
272 273 273 274 274 275 275 276 277 278 280 280 280 280 279 279 280 281 280 280 283 285 284 283 283 284 285 285 286 286 287 288 289 289 289 289 289 290 290 290 291 291 292 292 292 292 292 292 292 292 293 293 293 293 293 294 294 295 295 296 297 298 298 299 300 300 301 301 301 301 302 303 304 306 308 308 309 310 311 312 314 316 317 317 318 318
272 272 273 273 274 275 276 276 277 278 279 280 280 280 280 281 282 281 280 284 288 287 284 283 284 284 285 286 286 286 287 288 288 288 288 288 288 288 289 289 290 290 291 291 291 291 292 292 292 293 293 294 294 294 294 294 295 295 296 297 297 298 299 299 300 300 300 300 300 301 302 303 305 307 308 309 310 311 312 313 314 315 316 316 317 317
270 270 271 272 273 274 275 276 277 278 279 280 282 283 283 282 281 281 284 288 289 286 284 284 284 285 286 286 286 286 287 287 287 287 287 287 287 287 288 289 289 289 289 289 289 289 289 290 291 291 292 292 292 292 293 294 294 295 296 296 297 298 298 299 299 300 300 300 300 301 303 305 306 308 309 310 311 311 311 312 313 314 314 315 316 317
269 269 269 270 271 272 274 274 275 277 280 282 283 283 282 281 281 284 288 287 285 284 284 284 284 285 285 285 285 285 285 285 285 285 286 286 286 286 287 287 287 287 287 288 288 288 288 288 288 289 289 290 290 291 292 293 294 294 295 296 297 298 298 299 299 299 299 300 301 302 304 305 307 308 308 308 308 308 309 310 312 313 313 314 315 316
268 268 268 269 270 271 272 273 274 277 280 281 280 279 280 282 285 286 285 284 283 283 283 283 283 284 284 283 283 283 283 283 283 284 284 284 284 284 283 283 283 284 284 285 285 286 286 287 287 288 289 290 291 292 293 293 294 295 296 297 297 297 298 298 298 299 299 300 302 303 304 305 306 306 306 306 306 307 309 310 311 311 312 314 315 315
267 267 268 269 270 270 271 272 274 276 277 277 277 278 281 283 283 283 282 282 282 282 282 282 282 281 281 281 281 281 282 282 282 282 282 282 282 281 281 281 281 281 281 281 282 282 283 284 285 287 288 289 290 291 292 293 294 294 295 296 296 296 297 297 298 298 299 300 301 301 302 302 303 304 304 305 306 307 308 309 309 310 312 313 314 315
267 268 268 269 269 269 270 271 273 274 275 276 277 278 279 280 281 281 281 281 280 280 280 279 279 278 278 279 279 280 280 281 281 281 281 281 282 282 282 282 281 280 279 279 280 281 282 283 284 285 285 286 287 287 288 290 291 291 292 293 293 293 294 294 294 294 295 296 297 297 298 299 301 302 303 304 305 306 307 308 308 310 311 313 313 313
268 269 269 269 269 270 271 272 273 274 275 276 276 277 279 279 280 280 280 279 278 277 276 275 275 276 276 276 277 277 278 278 279 279 280 281 282 282 283 283 282 281 280 280 281 281 281 282 283 284 284 285 285 286 286 286 287 287 288 288 288 288 288 289 290 291 292 294 295 295 297 298 300 301 302 303 304 305 306 306 308 309 311 312 312 312
268 269 269 270 270 271 272 273 273 274 275 275 276 278 279 279 278 277 277 277 276 275 274 274 274 274 275 275 275 276 276 277 278 279 280 280 281 281 282 281 281 281 282 283 283 282 282 282 282 282 283 284 285 285 285 285 286 286 285 285 286 286 287 288 289 291 292 293 294 295 296 298 299 301 302 303 303 304 305 306 307 309 310 311 312 312
268 268 269 270 271 272 273 274 274 275 275 276 276 277 277 276 276 275 275 274 274 273 273 273 274 274 274 275 275 275 276 277 277 278 278 278 279 280 280 280 280 281 282 283 283 283 283 283 283 283 283 284 284 284 285 285 286 286 286 286 287 287 288 289 290 291 292 293 293 295 296 298 299 301 301 302 303 304 304 305 307 308 310 310 311 312
268 268 268 269 270 271 272 273 274 274 275 275 276 276 276 275 274 273 273 273 273 273 273 273 273 274 274 274 274 275 275 275 276 277 277 278 278 279 279 280 280 281 281 281 281 282 283 283 283 284 284 284 284 284 284 285 286 287 287 288 288 289 289 290 290 291 292 293 294 295 296 298 300 300 301 302 303 303 304 305 306 308 309 309 310 311
268 268 269 269 270 271 273 274 274 274 273 273 273 273 273 273 272 272 272 272 273 273 273 273 272 272 272 273 273 274 274 275 275 276 276 277 278 278 278 279 279 279 279 280 281 282 283 283 283 283 283 283 283 283 284 286 287 287 288 288 289 289 289 290 290 291 292 293 294 295 297 299 300 300 301 302 303 303 303 305 306 308 309 309 310 311
268 269 270 271 272 273 274 274 274 273 273 272 271 270 270 270 271 271 272 272 272 273 273 273 272 271 271 271 272 273 273 274 274 274 275 276 276 276 276 277 277 278 279 280 281 282 282 282 282 282 282 282 282 284 285 286 287 287 288 288 288 289 289 289 290 291 292 293 294 296 297 299 300 300 301 302 302 302 303 304 306 308 308 309 311 312
Height
10760 10760 10757 10754 10753 10753 10754 10753 10753 10753 10754 10752 10751 10752 10752 10752 10752 10748 10752 10757 10756 10760 10760 10756 10760 10758 10751 10748 10742 10737 10736 10735 10733 10731 10731 10730 10729 10730 10730 10731 10730 10729 10728 10727 10727 10725 10724 10722 10719 10716 10713 10711 10710 10708 10706 10704 10702 10700 10698 10696 10694 10691 10689 10686 10684 10681 10679 10676 10674 10671 10668 10666 10663 10660 10657 10654 10650 10647 10643 10640 10637 10633 10630 10627 10624 10621
10756 10756 10752 10748 10748 10748 10748 10748 10748 10749 10748 10748 10747 10747 10747 10747 10747 10745 10746 10750 10751 10755 10756 10752 10755 10753 10747 10744 10739 10735 10734 10730 10727 10727 10725 10723 10722 10723 10724 10724 10724 10723 10723 10722 10721 10720 10719 10717 10714 10711 10707 10705 10704 10702 10700 10698 10696 10694 10692 10690 10688 10685 10683 10680 10677 10675 10672 10670 10667 10664 10661 10658 10655 10652 10648 10645 10641 10638 10635 10631 10628 10625 10622 10618 10615 10611
10753 10751 10746 10743 10744 10743 10742 10743 10743 10744 10744 10743 10743 10743 10743 10741 10742 10743 10742 10743 10746 10749 10751 10748 10750 10749 10743 10741 10735 10729 10731 10728 10723 10720 10717 10716 10716 10717 10718 10717 10717 10717 10716 10717 10716 10715 10714 10712 10709 10704 10701 10699 10697 10696 10694 10692 10690 10688 10686 10684 10682 10679 10676 10673 10670 10668 10665 10662 10659 10656 10653 10650 10647 10644 10640 10636 10633 10630 10626 10623 10620 10616 10612 10609 10604 10600
10749 10745 10741 10739 10738 10737 10738 10738 10737 10739 10740 10739 10738 10738 10739 10736 10737 10741 10738 10738 10741 10743 10745 10744 10746 10745 10739 10737 10730 10722 10724 10725 10723 10716 10707 10708 10710 10709 10709 10709 10709 10710 10710 10710 10710 10710 10709 10706 10703 10698 10695 10693 10691 10689 10687 10686 10684 10681 10679 10677 10675 10672 10669 10666 10662 10660 10657 10654 10651 10648 10645 10641 10638 10635 10631 10628 10624 10621 10617 10614 10610 10606 10602 10598 10593 10589
10743 10739 10736 10733 10732 10733 10733 10732 10731 10733 10736 10736 10733 10732 10733 10732 10733 10736 10735 10735 10736 10738 10739 10738 10741 10742 10737 10734 10727 10718 10715 10715 10718 10717 10704 10700 10703 10702 10700 10698 10699 10701 10701 10702 10703 10703 10703 10700 10697 10692 10688 10686 10684 10682 10681 10679 10677 10674 10672 10670 10668 10665 10661 10658 10655 10652 10649 10646 10643 10640 10636 10633 10629 10626 10622 10619 10615 10611 10607 10603 10600 10595 10591 10586 10581 10577
10736 10731 10731 10729 10727 10728 10728 10727 10724 10726 10732 10733 10729 10725 10727 10729 10728 10730 10731 10732 10733 10733 10732 10731 10734 10739 10738 10734 10726 10717 10713 10706 10704 10708 10705 10699 10697 10695 10692 10688 10689 10691 10692 10693 10695 10696 10696 10694 10690 10685 10682 10680 10677 10675 10674 10672 10669 10667 10665 10663 10660 10657 10653 10650 10647 10644 10641 10638 10634 10631 10627 10624 10620 10617 10613 10609 10605 10601 10596 10592 10588 10584 10579 10575 10569 10565
10728 10723 10725 10725 10722 10722 10723 10721 10717 10719 10727 10729 10723 10719 10721 10724 10724 10725 10725 10726 10729 10729 10729 10726 10723 10733 10739 10733 10726 10718 10714 10707 10695 10693 10699 10700 10694 10688 10684 10680 10680 10683 10683 10685 10687 10688 10688 10686 10682 10679 10675 10672 10669 10667 10666 10664 10661 10659 10657 10655 10651 10648 10645 10642 10639 10636 10633 10629 10626 10622 10618 10614 10611 10607 10603 10599 10595 10590 10586 10581 10577 10572 10567 10562 10557 10551
10721 10718 10718 10717 10718 10717 10716 10714 10711 10713 10720 10724 10719 10715 10715 10716 10718 10720 10719 10720 10722 10723 10728 10723 10712 10726 10739 10732 10725 10718 10711 10705 10693 10686 10689 10696 10694 10684 10676 10674 10673 10674 10675 10677 10680 10680 10680 10678 10675 10672 10668 10664 10661 10659 10657 10655 10652 10651 10648 10646 10643 10640 10637 10634 10630 10627 10624 10620 10617 10613 10609 10605 10601 10597 10594 10589 10585 10580 10576 10571 10566 10561 10555 10550 10544 10538
10715 10713 10711 10710 10712 10711 10709 10708 10707 10707 10712 10717 10715 10711 10710 10709 10711 10713 10712 10713 10715 10717 10725 10719 10705 10718 10735 10730 10722 10715 10706 10698 10690 10684 10681 10685 10690 10681 10671 10668 10665 10665 10667 10670 10672 10673 10672 10671 10668 10666 10662 10657 10654 10651 10649 10647 10644 10642 10640 10638 10635 10633 10629 10626 10622 10619 10615 10611 10608 10604 10600 10596 10592 10588 10584 10580 10575 10571 10566 10560 10556 10550 10544 10537 10531 10526
10709 10708 10705 10705 10704 10702 10702 10702 10701 10701 10704 10708 10708 10706 10704 10703 10705 10705 10706 10706 10707 10713 10719 10712 10703 10711 10726 10726 10716 10707 10701 10694 10686 10682 10677 10674 10679 10676 10666 10661 10657 10656 10660 10663 10665 10665 10664 10663 10662 10660 10655 10650 10647 10644 10641 10639 10636 10634 10632 10630 10628 10625 10621 10617 10613 10610 10607 10603 10599 10595 10591 10587 10583 10579 10574 10570 10566 10561 10556 10550 10545 10539 10533 10526 10519 10513
10702 10703 10701 10699 10696 10696 10695 10694 10695 10696 10698 10699 10699 10699 10697 10697 10699 10698 10700 10698 10698 10709 10712 10704 10701 10704 10715 10719 10709 10699 10697 10690 10682 10680 10674 10666 10668 10668 10661 10653 10649 10648 10653 10657 10658 10657 10656 10656 10655 10653 10649 10644 10641 10638 10634 10631 10629 10626 10624 10622 10619 10617 10613 10609 10605 10601 10598 10594 10590 10586 10582 10578 10574 10570 10565 10560 10556 10551 10545 10539 10534 10528 10522 10515 10508 10502
10696 10697 10696 10693 10691 10690 10688 10688 10690 10691 10691 10691 10691 10691 10689 10691 10692 10692 10693 10690 10691 10702 10704 10698 10697 10699 10706 10708 10699 10695 10693 10684 10677 10676 10668 10659 10660 10660 10653 10645 10641 10643 10648 10651 10651 10649 10648 10649 10649 10645 10641 10638 10634 10630 10627 10624 10621 10618 10615 10613 10611 10608 10604 10600 10596 10592 10589 10585 10582 10577 10573 10569 10565 10560 10556 10550 10546 10540 10535 10529 10523 10517 10511 10504 10498 10490
10689 10690 10688 10686 10685 10683 10681 10682 10684 10685 10685 10684 10685 10682 10680 10683 10683 10683 10686 10683 10686 10695 10694 10691 10692 10694 10699 10697 10689 10689 10687 10676 10671 10669 10660 10653 10651 10649 10645 10638 10635 10638 10642 10644 10643 10641 10641 10641 10640 10637 10633 10630 10626 10621 10619 10616 10613 10610 10607 10605 10602 10599 10595 10591 10587 10583 10580 10576 10572 10568 10564 10560 10555 10550 10546 10540 10535 10530 10524 10518 10512 10506 10500 10493 10487 10479
10681 10683 10681 10677 10676 10676 10675 10675 10675 10677 10678 10678 10678 10673 10672 10675 10670 10671 10678 10678 10682 10687 10684 10684 10687 10690 10693 10689 10683 10683 10679 10667 10661 10659 10652 10647 10642 10638 10638 10633 10629 10632 10635 10635 10634 10633 10633 10634 10631 10628 10625 10621 10616 10613 10610 10607 10604 10601 10598 10595 10593 10589 10585 10581 10577 10574 10571 10566 10562 10558 10554 10549 10544 10539 10535 10530 10524 10519 10513 10507 10501 10494 10488 10482 10475 10467
10667 10676 10679 10668 10665 10669 10668 10666 10666 10668 10671 10672 10670 10665 10667 10666 10654 10655 10668 10673 10674 10678 10679 10678 10681 10685 10685 10682 10680 10678 10672 10660 10650 10648 10645 10640 10634 10629 10630 10627 10622 10623 10625 10624 10625 10624 10625 10625 10621 10618 10615 10611 10607 10604 10601 10598 10595 10591 10588 10586 10583 10579 10575 10570 10567 10564 10560 10556 10552 10548 10543 10539 10534 10529 10524 10519 10513 10507 10501 10495 10489 10483 10477 10470 10463 10456
10654 10668 10675 10661 10657 10662 10659 10658 10658 10658 10662 10663 10661 10659 10659 10654 10642 10642 10656 10664 10661 10665 10675 10674 10674 10679 10677 10675 10676 10669 10663 10653 10642 10640 10638 10632 10627 10624 10624 10621 10614 10612 10614 10614 10615 10615 10615 10614 10611 10608 10605 10600 10597 10594 10592 10589 10585 10582 10579 10576 10573 10569 10565 10561 10558 10554 10550 10546 10542 10537 10533 10528 10523 10518 10513 10508 10502 10496 10490 10484 10478 10471 10465 10459 10451 10445
10644 10656 10665 10657 10653 10654 10651 10650 10650 10650 10653 10653 10652 10652 10648 10642 10637 10635 10640 10650 10647 10648 10665 10670 10666 10673 10673 10669 10669 10660 10652 10645 10634 10633 10631 10623 10621 10620 10619 10614 10607 10604 10605 10606 10606 10606 10605 10602 10600 10598 10594 10590 10587 10585 10584 10579 10575 10573 10569 10566 10562 10559 10555 10551 10547 10543 10539 10536 10531 10526 10522 10516 10512 10507 10502 10497 10490 10485 10479 10472 10466 10459 10453 10446 10439 10432
10633 10637 10650 10650 10646 10647 10644 10641 10643 10645 10645 10642 10642 10642 10637 10633 10633 10629 10626 10634 10634 10632 10650 10662 10659 10664 10668 10663 10660 10651 10643 10637 10627 10623 10621 10616 10614 10614 10612 10606 10598 10595 10597 10598 10597 10596 10594 10592 10590 10587 10583 10580 10578 10576 10574 10568 10565 10563 10559 10555 10551 10547 10545 10540 10536 10532 10528 10524 10520 10515 10510 10505 10500 10496 10490 10485 10479 10472 10466 10460 10454 10447 10440 10433 10426 10420
10621 10619 10632 10641 10638 10637 10635 10635 10639 10641 10636 10631 10631 10631 10630 10627 10624 10621 10616 10618 10620 10617 10631 10650 10653 10656 10659 10655 10649 10640 10634 10628 10620 10615 10612 10612 10612 10610 10607 10599 10589 10587 10590 10590 10588 10586 10584 10582 10579 10577 10574 10571 10567 10565 10562 10557 10554 10552 10547 10543 10540 10536 10534 10530 10526 10521 10517 10513 10508 10503 10499 10493 10489 10484 10479 10473 10466 10460 10454 10447 10441 10434 10427 10420 10414 10408
10610 10603 10615 10628 10628 10623 10626 10632 10634 10631 10624 10622 10624 10624 10625 10620 10614 10611 10607 10606 10607 10603 10611 10632 10645 10651 10650 10644 10637 10628 10622 10617 10609 10605 10605 10607 10608 10605 10602 10593 10583 10582 10584 10583 10580 10577 10575 10572 10569 10568 10566 10561 10558 10555 10551 10546 10543 10541 10536 10532 10529 10526 10523 10519 10515 10510 10506 10501 10497 10492 10487 10482 10477 10472 10466 10460 10454 10448 10441 10435 10429 10422 10415 10408 10401 10395
10599 10592 10597 10609 10613 10613 10621 10626 10621 10619 10618 10616 10616 10616 10617 10613 10604 10598 10597 10600 10598 10592 10597 10610 10629 10645 10644 10632 10625 10617 10611 10606 10599 10596 10596 10597 10599 10598 10593 10584 10576 10576 10577 10575 10572 10569 10566 10562 10560 10559 10556 10552 10549 10545 10540 10537 10533 10529 10525 10521 10518 10515 10512 10508 10503 10498 10494 10490 10485 10480 10475 10470 10465 10459 10454 10448 10441 10436 10429 10423 10417 10410 10403 10396 10389 10383
10590 10583 10581 10587 10596 10604 10612 10614 10610 10611 10613 10610 10608 10609 10608 10601 10591 10584 10586 10594 10590 10585 10590 10592 10606 10635 10637 10619 10612 10606 10599 10596 10592 10587 10585 10586 10590 10589 10583 10575 10569 10568 10567 10564 10562 10558 10554 10552 10550 10549 10545 10540 10537 10534 10530 10527 10523 10518 10513 10509 10507 10504 10501 10497 10492 10486 10482 10477 10472 10467 10462 10457 10452 10446 10441 10435 10429 10423 10417 10411 10405 10398 10392 10385 10377 10371
10580 10570 10567 10571 10579 10590 10598 10603 10605 10604 10605 10603 10600 10600 10596 10587 10584 10576 10573 10582 10580 10578 10586 10580 10585 10619 10628 10606 10597 10593 10588 10587 10583 10576 10575 10578 10580 10577 10572 10569 10565 10561 10558 10554 10551 10547 10543 10541 10539 10537 10533 10528 10525 10523 10519 10515 10511 10506 10501 10497 10495 10493 10489 10484 10479 10474 10469 10465 10459 10454 10449 10444 10439 10433 10428 10422 10416 10410 10405 10399 10393 10386 10379 10373 10365 10358
10567 10557 10557 10559 10563 10574 10584 10592 10598 10598 10594 10591 10588 10588 10584 10580 10580 10570 10563 10569 10567 10573 10584 10567 10566 10604 10617 10593 10581 10581 10579 10578 10570 10563 10566 10570 10567 10564 10562 10561 10556 10551 10548 10544 10540 10536 10533 10530 10528 10525 10519 10516 10514 10512 10508 10502 10498 10493 10488 10485 10483 10480 10476 10470 10465 10461 10456 10451 10446 10441 10436 10431 10426 10420 10415 10409 10403 10397 10392 10387 10380 10374 10367 10360 10353 10346
10556 10548 10547 10546 10548 10561 10574 10583 10589 10587 10580 10576 10576 10578 10576 10573 10569 10561 10559 10557 10555 10571 10577 10550 10550 10590 10600 10579 10570 10572 10572 10567 10556 10550 10556 10559 10554 10551 10551 10548 10542 10538 10536 10532 10527 10524 10522 10519 10516 10511 10506 10504 10504 10501 10495 10490 10485 10480 10475 10472 10470 10466 10462 10457 10452 10448 10443 10438 10433 10427 10423 10418 10413 10407 10402 10396 10390 10384 10380 10374 10368 10361 10355 10348 10340 10333
10545 10539 10535 10534 10536 10549 10565 10574 10575 10569 10562 10562 10568 10569 10565 10563 10558 10552 10550 10547 10549 10563 10560 10539 10545 10569 10573 10564 10564 10567 10564 10552 10541 10540 10546 10548 10543 10541 10539 10534 10528 10525 10523 10519 10515 10511 10509 10507 10502 10496 10492 10493 10492 10487 10482 10477 10472 10468 10462 10459 10456 10452 10448 10442 10438 10434 10429 10424 10418 10413 10409 10405 10400 10395 10389 10383 10377 10372 10367 10361 10355 10348 10342 10335 10327 10320
10528 10526 10527 10528 10529 10538 10552 10562 10561 10552 10546 10550 10556 10557 10555 10553 10550 10543 10539 10544 10547 10540 10533 10540 10545 10539 10542 10554 10560 10562 10552 10531 10523 10529 10533 10533 10531 10529 10525 10519 10515 10514 10511 10507 10503 10499 10496 10492 10486 10480 10479 10480 10477 10472 10467 10463 10459 10454 10449 10445 10442 10438 10433 10428 10425 10421 10415 10410 10404 10400 10396 10391 10387 10382 10376 10370 10364 10359 10354 10348 10341 10335 10328 10321 10313 10306
10512 10512 10520 10524 10525 10528 10534 10543 10546 10538 10533 10537 10541 10543 10546 10544 10541 10537 10536 10541 10536 10514 10512 10537 10537 10514 10521 10544 10553 10551 10537 10517 10513 10517 10518 10517 10516 10513 10509 10505 10504 10503 10500 10495 10489 10484 10481 10477 10471 10467 10466 10464 10460 10456 10452 10448 10444 10439 10435 10431 10427 10423 10419 10414 10411 10407 10401 10396 10390 10386 10382 10378 10373 10368 10363 10358 10352 10347 10341 10335 10328 10321 10314 10307 10299 10292
10501 10500 10510 10515 10513 10514 10517 10525 10533 10526 10518 10521 10525 10527 10532 10534 10534 10536 10535 10532 10520 10499 10500 10520 10518 10504 10513 10531 10537 10531 10518 10510 10509 10507 10504 10504 10503 10498 10492 10490 10493 10492 10487 10482 10474 10468 10464 10461 10458 10455 10452 10449 10444 10440 10436 10433 10429 10425 10421 10418 10413 10409 10405 10400 10396 10392 10387 10382 10377 10372 10368 10364 10360 10355 10350 10345 10339 10334 10328 10321 10314 10307 10299 10293 10286 10279
10491 10490 10502 10501 10493 10494 10500 10509 10517 10508 10498 10503 10509 10509 10516 10526 10530 10529 10523 10516 10505 10493 10493 10500 10497 10497 10510 10519 10515 10507 10501 10500 10496 10492 10493 10495 10492 10483 10474 10475 10482 10478 10471 10467 10461 10455 10450 10447 10444 10441 10437 10433 10429 10425 10421 10418 10414 10410 10407 10403 10399 10395 10391 10386 10382 10377 10372 10368 10363 10358 10354 10350 10346 10341 10336 10331 10326 10320 10314 10307 10300 10293 10285 10279 10272 10266
10478 10479 10488 10486 10474 10475 10488 10498 10496 10484 10477 10482 10487 10493 10508 10522 10518 10505 10500 10501 10495 10487 10485 10483 10476 10485 10504 10506 10494 10487 10486 10482 10477 10477 10480 10481 10477 10466 10456 10460 10465 10458 10453 10451 10448 10443 10438 10434 10431 10427 10422 10418 10414 10410 10407 10403 10399 10395 10392 10388 10384 10381 10376 10372 10368 10363 10358 10353 10348 10344 10341 10336 10332 10328 10322 10318 10312 10307 10300 10293 10286 10279 10272 10265 10259 10253
10464 10464 10471 10469 10454 10456 10477 10484 10473 10464 10457 10454 10466 10489 10507 10506 10491 10482 10486 10488 10482 10475 10470 10465 10462 10474 10488 10486 10475 10470 10466 10461 10461 10464 10466 10466 10461 10448 10440 10444 10445 10438 10434 10433 10433 10430 10425 10421 10416 10411 10407 10403 10399 10396 10392 10388 10384 10380 10376 10373 10369 10366 10362 10357 10353 10348 10343 10339 10335 10331 10327 10323 10319 10314 10309 10304 10299 10292 10286 10279 10273 10266 10259 10253 10247 10240
10448 10448 10453 10450 10436 10439 10460 10464 10453 10443 10430 10432 10464 10490 10489 10476 10468 10472 10479 10474 10465 10458 10451 10450 10456 10465 10467 10462 10456 10451 10445 10444 10447 10449 10451 10451 10442 10430 10427 10429 10427 10422 10419 10417 10416 10414 10409 10405 10401 10396 10393 10388 10384 10381 10377 10373 10370 10365 10361 10358 10355 10351 10347 10342 10338 10334 10329 10325 10321 10317 10314 10310 10306 10301 10295 10290 10284 10278 10272 10266 10260 10253 10246 10241 10235 10228
10435 10433 10433 10431 10421 10422 10437 10444 10432 10414 10408 10431 10466 10473 10459 10455 10460 10464 10465 10459 10448 10440 10436 10440 10450 10452 10447 10442 10437 10429 10425 10427 10430 10434 10439 10434 10419 10410 10415 10416 10411 10407 10405 10403 10401 10397 10392 10389 10386 10381 10378 10373 10369 10367 10363 10359 10355 10351 10348 10345 10340 10337 10333 10328 10324 10319 10315 10312 10308 10304 10300 10296 10292 10287 10281 10276 10270 10264 10259 10253 10247 10241 10234 10228 10222 10215
10422 10421 10418 10414 10407 10403 10413 10417 10403 10393 10408 10432 10445 10444 10443 10449 10452 10448 10443 10440 10434 10427 10426 10432 10439 10435 10428 10426 10424 10415 10408 10407 10411 10420 10425 10413 10396 10392 10399 10403 10397 10390 10388 10387 10384 10381 10377 10373 10370 10366 10362 10357 10354 10352 10348 10345 10341 10338 10335 10331 10326 10322 10318 10313 10309 10305 10301 10298 10294 10290 10286 10281 10277 10271 10266 10261 10256 10250 10246 10240 10234 10228 10221 10215 10208 10201
10409 10407 10403 10398 10391 10387 10390 10389 10381 10384 10400 10410 10416 10431 10442 10441 10436 10427 10417 10419 10423 10418 10419 10425 10423 10412 10408 10415 10416 10404 10390 10385 10392 10407 10410 10392 10376 10377 10382 10383 10379 10374 10371 10369 10367 10365 10362 10357 10354 10350 10345 10341 10339 10336 10334 10330 10327 10324 10320 10316 10311 10307 10303 10298 10294 10290 10286 10283 10278 10274 10270 10265 10261 10256 10252 10247 10242 10237 10232 10227 10221 10216 10209 10202 10195 10189
10394 10388 10384 10378 10374 10374 10372 10368 10367 10368 10374 10387 10407 10427 10432 10424 10418 10407 10395 10398 10407 10410 10414 10415 10402 10388 10391 10406 10406 10388 10370 10364 10373 10392 10394 10373 10359 10363 10364 10360 10357 10356 10354 10352 10349 10348 10345 10341 10338 10333 10329 10325 10322 10320 10319 10315 10312 10309 10304 10300 10296 10292 10287 10283 10278 10274 10271 10267 10263 10259 10255 10251 10246 10243 10239 10234 10229 10224 10219 10214 10209 10203 10196 10189 10183 10178
10376 10370 10367 10359 10354 10356 10353 10346 10346 10346 10354 10378 10401 10413 10413 10405 10397 10389 10375 10373 10392 10408 10407 10395 10380 10373 10380 10389 10387 10369 10351 10347 10356 10371 10373 10356 10346 10347 10345 10341 10338 10336 10335 10334 10331 10329 10327 10324 10321 10317 10314 10311 10307 10305 10303 10299 10296 10294 10289 10284 10280 10276 10272 10268 10264 10261 10257 10253 10249 10245 10241 10237 10234 10231 10227 10222 10216 10212 10206 10201 10195 10189 10183 10178 10173 10168
10356 10353 10352 10343 10334 10336 10333 10326 10326 10328 10339 10364 10382 10390 10392 10386 10380 10370 10350 10353 10388 10407 10391 10371 10363 10361 10362 10365 10364 10352 10337 10333 10339 10347 10349 10341 10334 10332 10329 10326 10323 10319 10317 10316 10312 10309 10308 10305 10302 10300 10298 10295 10292 10289 10286 10283 10280 10277 10273 10269 10265 10262 10259 10255 10251 10248 10244 10240 10237 10232 10228 10225 10222 10218 10214 10208 10204 10198 10193 10188 10182 10176 10172 10167 10163 10159
10338 10334 10333 10325 10317 10319 10315 10307 10308 10312 10324 10346 10360 10367 10371 10369 10363 10346 10329 10349 10387 10386 10361 10351 10349 10344 10343 10345 10343 10335 10325 10321 10319 10320 10325 10326 10321 10319 10317 10313 10310 10307 10304 10301 10298 10295 10292 10288 10286 10284 10282 10280 10276 10273 10270 10267 10265 10262 10258 10255 10252 10249 10246 10242 10238 10235 10231 10227 10223 10219 10216 10212 10208 10205 10200 10194 10190 10185 10179 10175 10170 10165 10161 10157 10152 10148
10324 10319 10314 10307 10303 10304 10299 10289 10287 10293 10308 10329 10342 10348 10349 10343 10335 10327 10331 10355 10368 10351 10336 10335 10330 10327 10330 10328 10321 10316 10312 10307 10300 10295 10302 10307 10308 10308 10306 10301 10297 10295 10291 10287 10285 10283 10279 10276 10274 10272 10269 10267 10263 10260 10258 10254 10251 10249 10245 10242 10239 10236 10233 10229 10225 10222 10218 10214 10210 10206 10203 10199 10195 10191 10186 10180 10177 10173 10168 10164 10159 10154 10149 10145 10141 10136
10310 10303 10296 10293 10292 10291 10285 10278 10271 10273 10296 10322 10330 10325 10318 10309 10311 10325 10338 10344 10337 10326 10322 10319 10312 10314 10314 10307 10302 10299 10295 10291 10285 10279 10282 10287 10292 10296 10295 10290 10287 10282 10276 10273 10270 10267 10266 10265 10262 10259 10257 10255 10251 10248 10246 10242 10238 10236 10233 10230 10228 10224 10220 10216 10213 10209 10205 10200 10197 10193 10189 10185 10182 10177 10173 10169 10166 10162 10158 10153 10147 10143 10138 10134 10130 10124
10292 10285 10278 10278 10282 10279 10269 10263 10261 10267 10292 10315 10312 10297 10289 10290 10304 10319 10321 10317 10315 10312 10308 10304 10301 10301 10295 10287 10284 10280 10276 10276 10273 10268 10267 10268 10272 10279 10280 10278 10275 10269 10264 10261 10256 10253 10252 10250 10247 10246 10244 10242 10239 10235 10231 10228 10225 10222 10219 10217 10215 10210 10207 10204 10199 10195 10191 10187 10183 10180 10175 10172 10169 10165 10162 10158 10154 10149 10145 10140 10135 10132 10127 10124 10119 10114
10267 10269 10267 10267 10271 10266 10251 10247 10255 10268 10283 10289 10283 10281 10284 10287 10295 10301 10298 10295 10298 10296 10293 10291 10288 10284 10277 10271 10266 10262 10261 10262 10259 10256 10252 10249 10251 10258 10262 10262 10261 10256 10252 10248 10243 10241 10239 10236 10235 10235 10232 10230 10228 10223 10220 10216 10213 10210 10207 10204 10201 10197 10194 10191 10186 10181 10178 10174 10171 10167 10163 10160 10158 10154 10151 10146 10141 10137 10132 10128 10124 10120 10116 10112 10108 10103
10246 10257 10259 10254 10250 10244 10238 10240 10250 10259 10266 10267 10264 10271 10279 10278 10279 10283 10281 10280 10283 10283 10279 10273 10266 10264 10262 10257 10251 10248 10246 10244 10242 10239 10236 10233 10234 10238 10241 10245 10243 10237 10234 10233 10230 10229 10227 10225 10224 10223 10221 10219 10217 10214 10211 10208 10203 10201 10197 10193 10189 10186 10183 10179 10174 10170 10167 10164 10161 10156 10152 10150 10146 10143 10139 10134 10129 10124 10120 10116 10112 10107 10103 10100 10097 10093
10232 10240 10240 10236 10230 10225 10224 10231 10239 10245 10252 10254 10250 10255 10265 10266 10265 10264 10261 10260 10264 10265 10261 10254 10249 10248 10246 10241 10237 10234 10230 10228 10226 10223 10221 10221 10220 10219 10222 10225 10221 10213 10211 10214 10215 10215 10215 10214 10212 10209 10207 10205 10204 10202 10200 10197 10193 10191 10188 10183 10179 10175 10172 10168 10164 10159 10156 10153 10149 10144 10141 10138 10135 10131 10127 10122 10116 10112 10108 10103 10100 10095 10091 10088 10085 10081
10218 10221 10217 10215 10217 10213 10210 10216 10225 10231 10237 10240 10239 10242 10249 10250 10247 10246 10241 10239 10241 10241 10240 10239 10237 10232 10227 10225 10222 10219 10216 10214 10212 10210 10210 10209 10204 10203 10205 10206 10202 10195 10191 10192 10194 10196 10198 10200 10198 10195 10193 10191 10190 10188 10185 10183 10181 10178 10175 10171 10167 10163 10160 10156 10152 10148 10144 10140 10135 10131 10128 10126 10123 10119 10114 10109 10104 10099 10095 10090 10087 10083 10080 10076 10072 10069
10203 10206 10201 10198 10201 10201 10199 10204 10210 10212 10217 10226 10229 10229 10229 10227 10226 10225 10221 10217 10220 10222 10222 10224 10222 10216 10212 10211 10207 10204 10203 10202 10199 10196 10195 10193 10191 10190 10190 10188 10187 10183 10178 10176 10175 10175 10179 10182 10181 10180 10180 10178 10175 10172 10169 10168 10166 10163 10160 10157 10153 10150 10147 10143 10139 10135 10131 10126 10122 10118 10116 10113 10110 10106 10102 10097 10092 10087 10081 10077 10074 10071 10068 10064 10061 10057
10183 10186 10188 10186 10186 10188 10191 10194 10197 10196 10199 10210 10215 10210 10205 10203 10201 10201 10199 10199 10200 10203 10206 10208 10207 10202 10198 10195 10193 10191 10189 10188 10187 10183 10178 10178 10178 10177 10174 10173 10172 10170 10166 10163 10159 10159 10162 10165 10164 10165 10165 10163 10160 10157 10155 10153 10151 10148 10146 10144 10140 10137 10133 10129 10125 10121 10117 10112 10108 10105 10102 10100 10097 10094 10089 10084 10079 10074 10068 10063 10060 10058 10057 10054 10050 10046
10166 10166 10172 10171 10169 10176 10183 10184 10181 10176 10178 10193 10202 10193 10183 10180 10177 10176 10179 10181 10181 10184 10188 10190 10190 10187 10182 10179 10179 10177 10174 10174 10176 10170 10164 10162 10163 10162 10160 10158 10155 10153 10151 10149 10147 10147 10148 10149 10149 10150 10149 10147 10145 10143 10141 10141 10138 10135 10133 10130 10126 10123 10119 10114 10111 10107 10102 10099 10095 10092 10090 10088 10084 10080 10075 10071 10066 10061 10056 10051 10046 10043 10041 10039 10037 10034
10154 10154 10157 10154 10155 10166 10172 10166 10157 10149 10152 10170 10182 10172 10162 10162 10161 10159 10161 10164 10164 10167 10168 10166 10166 10167 10168 10168 10167 10163 10158 10158 10160 10157 10151 10148 10147 10146 10144 10141 10139 10138 10137 10135 10134 10134 10133 10132 10134 10135 10133 10132 10132 10131 10130 10129 10125 10122 10119 10116 10112 10108 10104 10100 10097 10093 10088 10085 10081 10078 10076 10074 10070 10066 10062 10058 10054 10049 10044 10040 10036 10031 10027 10023 10020 10017